Tracking 29782 objects as of 13-Oct-2024
HD Live streaming from Space Station
objects crossing your sky now

FLOCK 4Y 13

Track FLOCK 4Y 13 now!
10-day predictions
FLOCK 4Y 13 is classified as:


NORAD ID: 55079
Int'l Code: 2023-001BY
Perigee: 456.4 km
Apogee: 473.0 km
Inclination: 97.4 °
Period: 93.7 minutes
Semi major axis: 6835 km
RCS: Unknown
Launch date: January 3, 2023
Source: United States (US)
Launch site: AIR FORCE EASTERN TEST RANGE (AFETR)
Your satellite tracking list
Your tracking list is empty




NASA's NSSDC Master Catalog

Two Line Element Set (TLE):
1 55079U 23001BY  24286.12589185  .00055778  00000-0  15736-2 0  9999
2 55079  97.4105 348.3633 0012155 113.9801 246.2717 15.36133835 98689
Source of the keplerian elements: AFSPC